This is the latest recevied weather packets stored in our database for station/object KD9NSC. If no packets are shown the sender has not sent any weather packets the latest 10 day(s).
| Time | Temp. | Humidity | Pressure | Rain* | Wind** | Luminosity | Snow |
|---|---|---|---|---|---|---|---|
| 1777727563 | 9.44° C | 60% | 1021.9 hPa | 0 mm | - | 90 W/m² | - |
| 1777727260 | 8.33° C | 66% | 1021.8 hPa | 0 mm | - | 89 W/m² | - |
| 1777726957 | 8.33° C | 64% | 1021.9 hPa | 0 mm | - | 85 W/m² | - |
| 1777726654 | 6.67° C | 70% | 1021.8 hPa | 0 mm | - | 142 W/m² | - |
| 1777726352 | 6.11° C | 73% | 1021.7 hPa | 0 mm | - | 107 W/m² | - |
| 1777726048 | 6.11° C | 74% | 1022 hPa | 0 mm | - | 125 W/m² | - |
| 1777725745 | 5.56° C | 75% | 1021.7 hPa | 0 mm | - | 72 W/m² | - |
| 1777725443 | 5° C | 78% | 1021.9 hPa | 0 mm | - | 42 W/m² | - |
| 1777725140 | 3.89° C | 82% | 1021.8 hPa | 0 mm | - | 87 W/m² | - |
| 1777724837 | 3.33° C | 84% | 1021.9 hPa | 0 mm | - | 46 W/m² | - |
| 1777724533 | 2.78° C | 86% | 1021.7 hPa | 0 mm | - | 39 W/m² | - |
| 1777724232 | 2.22° C | 86% | 1021.6 hPa | 0 mm | - | 29 W/m² | - |
| 1777723929 | 1.67° C | 87% | 1021.7 hPa | 0 mm | - | 33 W/m² | - |
| 1777723625 | 2.22° C | 88% | 1021.4 hPa | 0 mm | - | 33 W/m² | - |
| 1777723322 | 1.67° C | 87% | 1021.3 hPa | 0 mm | - | 21 W/m² | - |
| 1777723020 | 1.67° C | 88% | 1021.5 hPa | 0 mm | - | 25 W/m² | - |
| 1777722716 | 1.67° C | 93% | 1021.4 hPa | 0 mm | - | 20 W/m² | - |
| 1777722412 | 0.56° C | 95% | 1021.5 hPa | 0 mm | - | 26 W/m² | - |
| 1777722110 | -0.56° C | 95% | 1021.2 hPa | 0 mm | - | 19 W/m² | - |
| 1777721807 | -1.11° C | 95% | 1021.5 hPa | 0 mm | - | 14 W/m² | - |
| 1777721505 | -1.11° C | 94% | 1021.3 hPa | 0 mm | - | 10 W/m² | - |
| 1777721202 | -1.11° C | 94% | 1021.4 hPa | 0 mm | - | 8 W/m² | - |
| 1777720900 | -1.67° C | 94% | 1021.3 hPa | 0 mm | - | 7 W/m² | - |
| 1777720597 | -1.67° C | 94% | 1021.3 hPa | 0 mm | - | 6 W/m² | - |
| 1777720294 | -1.67° C | 94% | 1021.1 hPa | 0 mm | - | 5 W/m² | - |
* Rain latest hour (hover to see other rain measurements)
** Current wind speed in m/s (hover to see current wind gust speed)